Theta_e
361 366 369 368 366 366 365 363 362 360 361 362 362 362 363 363 362 362 363 364 363 363 363 359 356 357 358 357 359 359 358 358 360 360 359 358 358 360 358 356 354 348 350
363 365 368 367 366 366 365 362 362 361 361 361 362 362 363 363 363 363 364 364 364 364 361 358 356 356 356 355 358 358 357 358 360 360 358 357 360 358 354 352 352 346 347
361 364 366 367 366 365 364 363 362 361 362 361 361 361 363 362 363 363 363 364 364 363 361 359 356 356 355 354 357 357 358 357 360 360 360 353 356 355 353 350 347 345 343
361 360 364 367 365 365 364 362 362 362 362 361 361 361 362 363 363 363 363 364 364 363 359 358 357 356 356 355 356 357 357 358 361 359 354 354 352 354 350 347 345 343 342
358 360 365 366 365 365 364 362 361 362 362 361 361 362 362 363 363 362 363 364 365 362 360 358 358 359 357 356 356 356 356 357 359 353 347 349 346 348 347 344 343 342 341
357 361 365 366 365 364 364 362 362 362 362 362 362 362 362 363 363 362 363 363 363 363 360 359 359 358 357 355 356 354 354 356 358 346 349 350 345 348 346 344 342 341 340
360 360 362 365 365 365 364 363 362 362 362 362 362 362 362 362 363 363 363 363 362 362 360 357 358 357 355 354 354 352 353 356 347 344 347 346 344 347 345 343 342 341 339
359 359 361 365 365 364 363 362 361 362 361 361 361 361 362 362 363 363 363 362 361 360 359 358 357 355 353 352 352 351 352 354 346 345 345 343 346 347 344 342 341 340 339
361 359 359 362 364 364 363 361 361 361 361 360 360 360 361 362 362 362 362 361 360 359 357 356 355 353 352 351 351 350 352 353 342 346 344 343 347 345 344 341 341 339 339
360 360 358 358 361 359 359 362 362 361 361 360 360 360 360 361 362 361 358 360 360 359 356 355 353 351 350 349 349 349 351 352 337 342 342 343 348 345 343 341 340 339 338
358 358 358 356 355 356 355 357 360 362 361 360 360 360 357 356 357 358 358 360 359 358 355 354 352 350 349 349 349 350 352 340 337 343 341 350 348 345 343 340 340 339 338
350 353 356 355 353 353 357 357 358 357 357 356 356 356 354 350 351 356 356 359 358 357 355 353 352 350 349 337 334 346 342 337 339 342 343 349 346 344 342 340 339 338 337
351 353 353 352 351 349 353 354 356 355 354 354 353 354 349 347 350 351 352 354 350 353 346 348 345 343 337 334 331 331 334 333 345 342 346 349 347 343 342 340 339 338 336
350 353 353 354 350 349 353 353 354 354 352 351 351 352 347 342 345 346 350 348 345 344 339 338 337 336 335 333 330 331 333 345 341 341 344 348 346 344 341 340 338 337 336
329 350 352 352 352 350 352 351 352 352 352 352 352 351 347 344 343 347 348 347 345 342 339 337 335 336 334 333 334 334 337 344 341 341 342 348 346 345 342 340 338 336 335
311 343 350 351 351 352 350 348 347 349 351 352 352 352 348 347 344 344 348 346 344 343 339 339 338 337 334 333 331 333 338 344 341 340 340 342 346 344 343 339 337 334 333
315 315 329 348 352 351 351 349 347 345 347 348 349 351 351 347 344 344 345 346 345 343 341 338 339 336 331 331 332 335 347 347 341 339 339 336 339 344 343 341 336 334 332
314 319 318 348 351 350 348 351 347 348 345 344 345 350 351 347 348 344 342 343 344 342 341 338 334 329 329 329 331 341 348 348 345 343 340 334 332 335 341 342 339 334 332
313 321 319 322 347 348 348 350 349 352 348 345 345 349 348 346 350 345 341 342 341 339 335 333 332 330 328 331 343 344 345 343 346 345 340 335 332 332 335 340 340 338 336
314 317 321 323 328 348 348 347 348 346 350 348 347 348 346 345 348 344 342 342 342 337 335 333 330 333 334 333 345 345 345 345 342 341 341 340 333 331 331 329 331 334 334
313 318 326 327 325 334 346 343 341 343 345 347 349 348 345 346 345 345 340 342 340 336 336 333 333 331 336 338 341 339 338 337 335 336 333 336 333 331 332 331 330 330 328
313 315 324 327 328 331 343 347 343 345 344 345 349 349 347 345 343 345 341 343 338 336 337 336 337 334 337 340 336 334 326 330 330 329 328 329 326 329 328 327 327 327 320
312 317 324 330 331 334 337 347 344 341 340 343 346 345 346 345 342 346 343 342 338 337 337 341 339 335 333 339 338 330 323 321 324 327 325 325 325 324 322 322 322 320 319
313 319 327 331 331 334 337 343 344 344 340 341 342 344 346 345 344 346 344 342 338 339 339 343 343 340 337 333 337 338 334 330 323 318 324 323 322 322 320 320 318 317 313
314 316 327 327 329 329 331 334 344 343 343 342 343 344 344 346 346 348 344 344 343 339 341 342 342 341 339 334 333 334 330 331 329 323 316 319 322 320 320 319 316 312 309
312 313 324 326 326 328 331 330 340 343 342 340 339 341 342 344 344 347 346 342 346 340 342 343 342 340 337 336 334 332 327 323 321 318 312 314 314 317 319 315 311 309 309
Wind_Speed
8 10 16 17 16 16 16 15 17 15 15 16 17 16 17 18 17 18 18 18 16 14 13 13 13 12 11 11 8 10 10 12 13 11 13 13 14 14 14 17 15 13 15
14 11 16 17 17 17 16 14 16 16 14 15 17 17 17 17 18 17 16 16 15 14 13 13 12 11 10 10 8 8 6 12 8 9 11 15 14 14 14 17 16 13 16
15 11 14 17 17 17 16 14 14 17 15 14 15 16 17 17 17 16 16 16 16 14 14 13 12 10 9 8 6 4 2 8 6 4 10 4 7 12 13 17 15 15 16
15 10 10 16 15 18 16 15 13 15 17 16 14 13 15 15 16 15 14 14 14 14 14 13 12 10 8 6 3 1 2 4 3 4 2 6 9 11 13 16 16 15 15
15 12 12 16 15 16 18 16 15 13 16 16 16 14 12 13 13 13 13 13 13 14 13 12 11 9 7 5 3 3 4 5 6 5 1 8 6 10 13 17 14 15 15
14 13 16 17 16 16 16 17 16 15 15 18 17 15 14 13 11 10 10 11 11 11 11 10 8 7 6 4 2 4 6 7 8 3 10 12 7 13 17 17 16 14 13
10 8 12 20 18 16 16 17 17 16 15 17 17 16 15 13 11 10 10 9 9 10 10 10 8 6 5 4 2 5 7 6 6 5 9 8 8 13 17 16 16 14 13
12 10 9 13 19 17 16 16 18 17 16 17 18 16 15 14 12 10 10 10 9 9 8 8 7 6 5 4 3 5 9 6 7 7 9 6 12 17 18 15 15 14 13
13 11 6 6 12 18 16 16 16 16 17 17 18 16 15 15 13 12 11 10 10 8 7 5 5 6 5 4 5 6 9 6 3 6 9 5 14 17 17 16 15 14 13
13 13 11 7 7 10 11 15 16 17 16 15 16 17 16 14 13 13 11 11 11 10 9 7 7 5 5 4 6 9 10 4 1 8 6 5 12 17 16 15 15 14 12
7 9 12 13 9 8 9 11 13 17 16 16 14 15 12 7 8 10 9 10 10 9 8 8 7 5 5 7 10 11 10 4 1 5 5 12 11 18 16 15 14 13 11
8 8 10 13 13 11 9 10 9 10 8 9 9 10 7 6 6 9 8 13 11 10 9 8 7 6 6 4 4 9 2 0 3 6 5 14 12 14 15 14 13 12 10
13 7 8 10 13 13 10 8 6 5 6 7 9 9 7 6 7 5 4 5 4 8 4 5 4 3 5 4 4 5 3 3 5 6 12 16 15 15 15 14 13 11 9
11 10 7 7 13 13 9 9 9 7 7 6 9 11 6 4 7 5 5 5 5 4 5 5 4 5 6 6 6 7 3 6 4 4 10 15 14 15 14 14 12 10 8
7 8 8 4 7 12 11 9 10 10 9 9 9 11 9 6 8 7 7 7 6 6 6 6 5 5 6 5 6 8 3 9 9 5 5 15 14 14 14 13 11 9 7
7 9 10 9 7 7 9 11 9 9 10 10 9 10 12 9 8 8 9 9 8 8 7 5 7 6 5 5 6 6 3 9 10 8 5 7 13 12 11 11 10 8 7
8 9 9 10 10 7 8 8 7 8 10 10 9 12 13 10 8 11 8 9 9 8 9 6 6 4 4 4 4 4 8 10 9 8 6 4 6 11 10 10 9 7 6
6 9 10 9 10 9 6 8 8 6 7 9 9 10 15 11 10 8 10 8 9 8 7 7 4 4 4 4 1 4 8 6 8 9 7 5 4 4 8 11 8 7 6
9 9 9 8 9 9 8 8 7 6 7 8 9 10 14 14 11 9 7 6 6 5 6 5 3 4 3 1 3 3 4 5 8 6 8 6 6 6 4 9 8 5 9
10 9 10 9 9 9 6 6 9 6 4 6 10 12 15 12 9 8 5 6 6 5 5 4 4 3 4 4 4 5 4 4 5 4 5 6 5 7 5 5 5 8 14
10 10 10 9 9 6 4 4 3 11 7 6 6 14 15 12 11 10 6 6 6 7 6 6 4 5 3 2 4 3 3 4 6 5 4 5 4 3 6 5 5 5 7
11 11 11 13 10 7 5 5 4 4 9 7 4 6 15 14 14 12 10 7 9 7 7 6 5 3 3 4 4 3 3 3 4 4 4 5 6 9 9 8 8 6 6
11 10 11 15 13 10 8 6 3 2 3 8 7 4 12 15 14 13 10 8 8 9 7 5 6 7 4 2 4 6 3 2 2 2 3 4 6 6 6 7 7 7 8
13 11 12 14 15 10 10 9 10 9 9 9 10 4 8 15 12 11 10 6 6 5 6 5 5 4 5 4 3 3 3 6 4 1 1 3 4 6 6 4 5 9 7
12 11 13 15 13 10 9 8 10 9 8 6 9 14 11 11 9 15 14 8 8 4 5 7 6 6 3 4 3 3 2 1 2 4 3 1 3 3 4 7 7 6 6
8 8 12 15 15 12 12 10 9 12 10 7 8 9 10 6 5 3 7 10 7 6 7 6 6 8 5 5 3 4 4 4 2 2 3 2 5 2 6 7 6 5 4
Wind_Direction
126 135 130 129 129 127 123 129 123 122 118 115 110 106 104 105 106 105 106 105 107 108 107 108 109 106 105 103 99 86 86 82 78 80 77 74 72 62 61 64 60 54 48
131 141 132 133 133 128 127 136 130 125 123 123 122 119 112 111 110 111 110 110 114 115 114 115 114 110 105 102 87 85 89 81 81 83 86 66 68 71 65 70 63 53 51
127 132 136 136 136 130 132 140 138 129 128 125 124 125 122 119 118 120 123 126 127 125 123 122 121 115 111 110 106 105 83 74 78 78 101 114 95 82 74 72 63 60 51
127 131 137 136 137 137 138 144 144 137 136 131 126 126 124 124 126 128 127 127 128 128 129 130 129 127 125 124 123 202 357 46 56 32 114 145 90 103 87 80 68 60 57
136 135 139 135 141 144 146 147 145 145 139 135 134 135 131 124 126 131 132 135 137 136 135 137 136 133 131 138 156 271 327 342 349 7 206 115 101 112 102 86 76 68 62
146 137 140 139 145 149 152 150 149 151 149 140 140 141 139 132 130 133 135 138 139 138 137 136 135 136 140 156 194 289 316 340 358 55 113 125 127 127 102 90 82 75 68
119 126 148 146 146 151 157 154 152 154 154 144 144 146 145 141 141 139 137 137 139 140 142 149 148 149 166 182 224 289 308 344 12 60 115 128 130 119 96 94 91 82 71
122 128 145 153 146 151 158 162 159 158 159 152 150 152 152 147 148 145 142 144 144 145 151 157 152 162 179 198 254 291 302 340 40 117 119 139 140 114 107 103 96 85 76
128 125 130 151 158 150 157 164 164 160 161 158 154 154 156 153 153 150 150 150 148 145 147 154 173 177 194 218 262 281 289 339 97 135 135 151 136 118 115 109 100 91 80
142 146 152 151 160 154 156 168 167 162 161 161 158 156 156 160 161 160 156 155 153 153 159 177 186 199 208 231 257 266 271 356 262 156 130 151 135 119 115 111 105 97 90
152 158 161 158 164 163 161 173 171 167 162 161 162 158 154 159 162 164 161 159 159 159 168 188 193 205 231 245 251 256 267 88 350 115 131 148 141 123 122 117 109 102 93
166 184 177 166 164 167 170 159 163 175 165 160 161 161 164 163 166 171 179 166 167 166 178 198 203 211 234 252 267 269 267 79 131 127 134 147 140 126 126 121 113 106 99
183 173 188 169 169 171 164 157 161 168 170 163 164 168 176 172 178 175 158 165 159 173 185 199 210 219 230 232 260 257 150 219 134 139 157 159 150 142 134 129 119 115 107
163 184 186 169 174 179 148 165 171 169 176 184 174 173 180 184 178 157 160 162 171 177 194 197 204 218 232 229 237 272 199 137 127 129 154 163 150 144 144 129 128 125 125
170 179 199 197 167 180 157 171 175 176 179 184 181 180 183 186 181 161 169 172 185 181 200 199 208 210 232 228 234 239 164 131 132 141 160 160 155 154 147 139 133 139 139
250 186 182 177 210 188 165 176 184 179 181 179 186 184 191 193 180 173 175 183 192 191 200 195 204 205 215 224 238 261 65 141 142 145 163 166 162 162 149 146 146 154 137
216 207 198 182 176 201 165 182 185 184 182 186 185 182 193 199 186 188 174 184 195 197 192 199 220 197 177 221 247 293 120 143 138 150 165 173 166 158 156 158 165 156 129
219 216 187 185 169 181 196 191 215 198 178 188 187 178 190 194 190 190 191 183 194 192 190 197 180 163 186 209 187 196 144 128 152 169 158 168 165 154 168 176 169 154 130
225 203 212 184 183 178 180 195 228 232 201 187 190 181 191 196 191 185 182 197 179 163 170 155 144 150 188 228 208 123 115 133 154 158 157 168 171 167 177 191 142 117 93
207 197 199 193 180 177 169 178 198 238 277 222 196 184 184 192 178 180 182 182 170 163 163 143 153 189 179 193 155 131 131 114 112 127 130 167 171 169 176 104 110 108 106
197 184 185 181 191 158 154 165 189 219 239 257 220 189 179 180 179 187 192 181 166 164 169 169 162 182 238 178 114 91 50 92 87 84 99 99 127 164 115 123 116 114 103
202 196 181 188 185 179 161 177 176 182 224 229 235 220 180 185 183 183 190 184 181 159 163 172 157 145 183 175 147 105 145 359 39 55 74 92 77 101 106 112 129 132 112
203 194 180 185 182 177 178 163 179 188 256 219 235 209 208 191 190 180 180 176 181 168 172 171 166 154 179 242 157 137 100 167 111 333 73 89 91 99 116 122 127 114 118
207 191 175 177 183 179 175 176 180 205 216 220 220 194 209 199 192 173 176 169 190 167 160 168 166 148 123 169 55 61 99 139 161 131 348 103 117 113 122 117 103 95 110
197 180 172 173 181 176 181 172 181 195 209 222 208 215 214 192 185 184 176 160 180 180 164 164 146 130 137 125 139 126 90 65 101 138 172 133 47 93 111 102 86 94 97
205 174 166 173 183 181 184 192 183 189 207 216 202 208 206 200 170 150 224 190 160 164 170 168 151 145 131 140 125 123 139 157 172 148 115 134 137 56 77 74 74 93 91